Regional Weather Roundup
Issued by NWS

Home | Current Version | Previous Version | Graphics & Text | Print | Product List | Glossary On
Versions: 1 2 3 4 5 6 7 8 9 10 11 12 13 14 15 16 17 18 19 20 21 22 23 24 25 26 27 28 29 30 31 32 33 34 35 36 37 38 39 40 41 42 43 44 45 46 47 48 49 50
000
ASUS45 KBOU 281807
RWRCO

WEATHER ROUNDUP FOR COLORADO
NATIONAL WEATHER SERVICE DENVER/BOULDER CO
1200 PM MDT FRI JUL 28 2017

NOTE: "FAIR" INDICATES FEW OR NO CLOUDS BELOW 12000 FEET WITH NO
SIGNIFICANT WEATHER AND/OR OBSTRUCTIONS TO VISIBILITY.

COZ001>005-013-030-031-281900-
...NORTHWEST COLORADO...

CITY           SKY/WX    TMP DP  RH WIND       PRES   REMARKS
CRAIG          FAIR      81  41  24 VRB3      30.26F
HAYDEN         FAIR      77  37  24 CALM      30.28F
MEEKER         FAIR      84  40  21 CALM      30.25F
RABBIT EARS PA FAIR      63  43  48 SW3       30.59S
STEAMBOAT SPGS FAIR      78  39  24 N3        30.30F
WALDEN         FAIR      73  39  29 SW6       30.40F
$$

COZ006>008-011-281900-
...WEST CENTRAL VALLEYS...

CITY           SKY/WX    TMP DP  RH WIND       PRES   REMARKS
GRAND JUNCTION FAIR      88  50  27 VRB5      30.12F
MONTROSE       FAIR      82  50  32 W7        30.21F
EAGLE          MOSUNNY   81  48  32 CALM      30.27
RIFLE          FAIR      83  51  33 VRB6      30.17F
DELTA          FAIR      83  48  30 CALM      30.17F
NUCLA          FAIR      79  48  34 N3        30.27F
$$

COZ017>023-064>068-281900-
...SOUTHWEST COLORADO...

CITY           SKY/WX    TMP DP  RH WIND       PRES   REMARKS
DURANGO        FAIR      73  55  53 W6        30.27F
CORTEZ         CLOUDY    78  55  44 VRB5      30.24F
PAGOSA SPRINGS FAIR      76  47  34 S3        30.33F
TELLURIDE      PTSUNNY   69  48  47 W10       30.47F
WOLF CREEK PAS CLOUDY    55  43  62 N7        30.70S
$$

COZ009-010-012-014-032>034-037-058>063-281900-
...CENTRAL COLORADO...

CITY           SKY/WX    TMP DP  RH WIND       PRES   REMARKS
ASPEN          FAIR      74  49  41 SW6       30.34S
BUENA VISTA    FAIR      76  46  33 S5        30.35F
COPPER MTN     CLOUDY    61  37  41 NW12      30.69F
BERTHOUD PASS  FAIR      54  43  66 W6        30.74S
COTTONWOOD PAS CLOUDY    70  43  37 CALM      30.52S THUNDER
GUNNISON       FAIR      76  50  40 SW6       30.34F
KREMMLING      FAIR      81  45  28 CALM      30.34F
LEADVILLE      CLOUDY    66  41  40 N9        30.47S
MONARCH PASS   CLOUDY    55  43  62 NE8       30.78F
SALIDA         FAIR      77  50  38 CALM      30.39F
SUNLIGHT       FAIR      59  45  58 NW3       30.62S
WILKERSON PASS CLOUDY    61  41  48 CALM      30.67S
$$

COZ069>075-281900-
...SAN LUIS VALLEY/SANGRE DE CRISTO MOUNTAINS...

CITY           SKY/WX    TMP DP  RH WIND       PRES   REMARKS
ALAMOSA        FAIR      74  54  49 CALM      30.32F
DEL NORTE      FAIR      74  50  43 E7        30.37F
LA VETA PASS   NOT AVBL
SAGUACHE         N/A    N/A N/A N/A MISG        N/A
$$

COZ035-036-038>040-281900-
...NORTHERN COLORADO FRONT RANGE...

CITY           SKY/WX    TMP DP  RH WIND       PRES   REMARKS
DENVER INTL AP FAIR      81  57  43 CALM      30.17F
DMNS CITY PARK   N/A     82  53  37 E6G15     30.17F
AURORA         MOSUNNY   81  58  45 NE5       30.19F
FRONT RANGE AP FAIR      82  54  36 NE6       30.19F
ERIE MUNI ARPT FAIR      82  56  41 CALM      30.16F
BOULDER MUN AP FAIR      79  59  50 E3        30.17F
CENTENNIAL     FAIR      81  53  37 VRB5      30.20F
BROOMFIELD     FAIR      81  54  39 SE3       30.20F
FORT COLLINS   FAIR      79  62  56 SW8       30.16F
LONGMONT       FAIR      83  59  44 S5        30.17F
$$

COZ041-046-047-076>085-087-088-281900-
...PIKES PEAK/PALMER DIVIDE AND SOUTHERN FOOTHILLS...

CITY           SKY/WX    TMP DP  RH WIND       PRES   REMARKS
COLO. SPRINGS  FAIR      83  61  47 VRB3      30.23F
A. F. ACADEMY  FAIR      82  51  34 E6        30.23F
SCHRIEVER AFB  FAIR      78  61  55 E7        30.23F
CHEYENNE MTN   PTSUNNY   75  60  59 S7        30.24S
ELLICOTT       FAIR     N/A N/A N/A S6        30.22F
FALCON           N/A     81  52  36 E10       30.29F
FORT CARSON    FAIR      78  63  60 CALM      30.20F
LIMON          FAIR      79  64  60 S9        30.18F
MONUMENT HILL  FAIR      75  54  46 NE6       30.31F
CANON CITY     SUNNY     82  63  51 E8        30.16F
WALSENBURG     FAIR      86  57  37 NE7       30.21F
TRINIDAD       FAIR      85  50  29 VRB5      30.19F
$$

COZ042>045-048>051-090-091-281900-
...NORTHEAST COLORADO...

CITY           SKY/WX    TMP DP  RH WIND       PRES   REMARKS
GREELEY ARPT   FAIR      81  61  50 VRB3      30.14F
AKRON          FAIR      84  61  45 VRB3      30.11F
BURLINGTON     FAIR      82  67  60 S13       30.12F
WRAY           NOT AVBL
YUMA           FAIR      82  57  42 S10       30.09F
STERLING       FAIR      81  68  65 N5        30.08F
HOLYOKE        FAIR      82  68  61 S9        30.10S
FORT MORGAN    FAIR      88  59  36 SE5       30.11F
$$

COZ086-089-092>099-281900-
...SOUTHEAST COLORADO...

CITY           SKY/WX    TMP DP  RH WIND       PRES   REMARKS
PUEBLO         FAIR      81  63  54 E5        30.12F
LA JUNTA       FAIR      84  65  52 CALM      30.10F
LAMAR          FAIR      85  66  53 S7        30.06F
SPRINGFIELD      N/A     81  68  64 S8G17     30.12F
$$



USA.gov is the U.S. government's official web portal to all federal, state and local government web resources and services.